Time,TemperatureF,DewpointF,PressureIn,WindDirection,WindDirectionDegrees,WindSpeedMPH,WindSpeedGustMPH,Humidity,HourlyPrecipIn,Conditions,Clouds,dailyrainin,SolarRadiationWatts/m^2,SoftwareType,DateUTC
2013-03-29 00:00:00,27.0,18.0,-100.00,SSW,202,1.0,-999.0,66,-99.99,,,-99.99,0.000000,,2013-03-29 04:00:00,
2013-03-29 00:43:00,27.0,18.0,-100.00,SSW,202,1.0,-999.0,66,-99.99,,,-99.99,0.000000,,2013-03-29 04:43:00,
2013-03-29 00:53:00,27.0,18.0,-100.00,SSW,202,1.0,-999.0,66,-99.99,,,-99.99,0.000000,,2013-03-29 04:53:00,
2013-03-29 02:00:00,24.0,17.0,-100.00,NW,315,1.0,-999.0,75,-99.99,,,-99.99,0.000000,,2013-03-29 06:00:00,
2013-03-29 02:42:00,24.0,17.0,-100.00,NW,315,1.0,-999.0,75,-99.99,,,-99.99,0.000000,,2013-03-29 06:42:00,
2013-03-29 02:52:00,24.0,17.0,-100.00,NW,315,1.0,-999.0,75,-99.99,,,-99.99,0.000000,,2013-03-29 06:52:00,
2013-03-29 03:00:00,23.0,17.0,-100.00,NW,315,1.0,-999.0,77,-99.99,,,-99.99,0.000000,,2013-03-29 07:00:00,
2013-03-29 03:42:00,23.0,17.0,-100.00,NW,315,1.0,-999.0,77,-99.99,,,-99.99,0.000000,,2013-03-29 07:42:00,
2013-03-29 03:52:00,23.0,17.0,-100.00,NW,315,1.0,-999.0,77,-99.99,,,-99.99,0.000000,,2013-03-29 07:52:00,
2013-03-29 04:00:00,22.0,17.0,-100.00,NNW,337,1.0,-999.0,80,-99.99,,,-99.99,0.000000,,2013-03-29 08:00:00,
2013-03-29 04:42:00,22.0,17.0,-100.00,NNW,337,1.0,-999.0,80,-99.99,,,-99.99,0.000000,,2013-03-29 08:42:00,
2013-03-29 04:53:00,22.0,17.0,-100.00,NNW,337,1.0,-999.0,80,-99.99,,,-99.99,0.000000,,2013-03-29 08:53:00,
2013-03-29 05:00:00,21.0,16.0,-100.00,NW,315,0.0,-999.0,81,-99.99,,,-99.99,0.000000,,2013-03-29 09:00:00,
2013-03-29 05:43:00,21.0,16.0,-100.00,NW,315,0.0,-999.0,81,-99.99,,,-99.99,0.000000,,2013-03-29 09:43:00,
2013-03-29 05:52:00,21.0,16.0,-100.00,NW,315,0.0,-999.0,81,-99.99,,,-99.99,0.000000,,2013-03-29 09:52:00,
2013-03-29 06:00:00,20.0,16.0,-100.00,NW,315,0.0,-999.0,83,-99.99,,,-99.99,0.000000,,2013-03-29 10:00:00,
2013-03-29 06:42:00,20.0,16.0,-100.00,NW,315,0.0,-999.0,83,-99.99,,,-99.99,0.000000,,2013-03-29 10:42:00,
2013-03-29 06:53:00,20.0,16.0,-100.00,NW,315,0.0,-999.0,83,-99.99,,,-99.99,0.000000,,2013-03-29 10:53:00,
2013-03-29 08:00:00,18.0,14.0,-100.00,South,180,0.0,-999.0,84,-99.99,,,-99.99,10.440000,,2013-03-29 12:00:00,
2013-03-29 08:43:00,18.0,14.0,-100.00,South,180,0.0,-999.0,84,-99.99,,,-99.99,10.440000,,2013-03-29 12:43:00,
2013-03-29 08:53:00,18.0,14.0,-100.00,South,180,0.0,-999.0,84,-99.99,,,-99.99,10.440000,,2013-03-29 12:53:00,
2013-03-29 09:00:00,27.0,17.0,-100.00,NW,315,2.0,-999.0,66,-99.99,,,-99.99,129.919998,,2013-03-29 13:00:00,
2013-03-29 09:43:00,27.0,17.0,-100.00,NW,315,2.0,-999.0,66,-99.99,,,-99.99,129.919998,,2013-03-29 13:43:00,
2013-03-29 09:53:00,27.0,17.0,-100.00,NW,315,2.0,-999.0,66,-99.99,,,-99.99,129.919998,,2013-03-29 13:53:00,
2013-03-29 11:00:00,41.0,17.0,-100.00,NW,315,3.0,-999.0,37,-99.99,,,-99.99,465.160004,,2013-03-29 15:00:00,
2013-03-29 11:43:00,41.0,17.0,-100.00,NW,315,3.0,-999.0,37,-99.99,,,-99.99,465.160004,,2013-03-29 15:43:00,
2013-03-29 11:53:00,41.0,17.0,-100.00,NW,315,3.0,-999.0,37,-99.99,,,-99.99,465.160004,,2013-03-29 15:53:00,
2013-03-29 12:00:00,44.0,17.0,-100.00,West,270,3.0,-999.0,32,-99.99,,,-99.99,605.520020,,2013-03-29 16:00:00,
2013-03-29 12:43:00,44.0,17.0,-100.00,West,270,3.0,-999.0,32,-99.99,,,-99.99,605.520020,,2013-03-29 16:43:00,
2013-03-29 12:53:00,44.0,17.0,-100.00,West,270,3.0,-999.0,32,-99.99,,,-99.99,605.520020,,2013-03-29 16:53:00,
2013-03-29 13:00:00,48.0,16.0,-100.00,WSW,247,3.0,-999.0,26,-99.99,,,-99.99,705.280029,,2013-03-29 17:00:00,
2013-03-29 13:43:00,48.0,16.0,-100.00,WSW,247,3.0,-999.0,26,-99.99,,,-99.99,705.280029,,2013-03-29 17:43:00,
2013-03-29 13:53:00,48.0,16.0,-100.00,WSW,247,3.0,-999.0,26,-99.99,,,-99.99,705.280029,,2013-03-29 17:53:00,
2013-03-29 17:00:00,45.0,16.0,-100.00,South,180,9.0,-999.0,31,-99.99,,,-99.99,566.080017,,2013-03-29 21:00:00,
2013-03-29 17:43:00,45.0,16.0,-100.00,South,180,9.0,-999.0,31,-99.99,,,-99.99,566.080017,,2013-03-29 21:43:00,
2013-03-29 17:53:00,45.0,16.0,-100.00,South,180,9.0,-999.0,31,-99.99,,,-99.99,566.080017,,2013-03-29 21:53:00,
2013-03-29 18:00:00,45.0,17.0,-100.00,SSW,202,9.0,-999.0,32,-99.99,,,-99.99,415.279999,,2013-03-29 22:00:00,
2013-03-29 18:43:00,45.0,17.0,-100.00,SSW,202,9.0,-999.0,32,-99.99,,,-99.99,415.279999,,2013-03-29 22:43:00,
2013-03-29 18:54:00,45.0,17.0,-100.00,SSW,202,9.0,-999.0,32,-99.99,,,-99.99,415.279999,,2013-03-29 22:54:00,
2013-03-29 19:00:00,44.0,16.0,-100.00,SSW,202,8.0,-999.0,32,-99.99,,,-99.99,244.759995,,2013-03-29 23:00:00,
2013-03-29 19:43:00,44.0,16.0,-100.00,SSW,202,8.0,-999.0,32,-99.99,,,-99.99,244.759995,,2013-03-29 23:43:00,
2013-03-29 19:52:00,44.0,16.0,-100.00,SSW,202,8.0,-999.0,32,-99.99,,,-99.99,244.759995,,2013-03-29 23:52:00,
2013-03-29 20:00:00,42.0,16.0,-100.00,SSW,202,6.0,-999.0,34,-99.99,,,-99.99,70.760002,,2013-03-30 00:00:00,
2013-03-29 20:43:00,42.0,16.0,-100.00,SSW,202,6.0,-999.0,34,-99.99,,,-99.99,70.760002,,2013-03-30 00:43:00,
2013-03-29 20:53:00,42.0,16.0,-100.00,SSW,202,6.0,-999.0,34,-99.99,,,-99.99,70.760002,,2013-03-30 00:53:00,
2013-03-29 21:00:00,39.0,16.0,-100.00,SSW,202,3.0,-999.0,39,-99.99,,,-99.99,2.320000,,2013-03-30 01:00:00,
2013-03-29 21:43:00,39.0,16.0,-100.00,SSW,202,3.0,-999.0,39,-99.99,,,-99.99,2.320000,,2013-03-30 01:43:00,
2013-03-29 21:53:00,39.0,16.0,-100.00,SSW,202,3.0,-999.0,39,-99.99,,,-99.99,2.320000,,2013-03-30 01:53:00,
2013-03-29 22:00:00,37.0,16.0,-100.00,SSW,202,3.0,-999.0,42,-99.99,,,-99.99,0.000000,,2013-03-30 02:00:00,
2013-03-29 22:43:00,37.0,16.0,-100.00,SSW,202,3.0,-999.0,42,-99.99,,,-99.99,0.000000,,2013-03-30 02:43:00,
2013-03-29 22:53:00,37.0,16.0,-100.00,SSW,202,3.0,-999.0,42,-99.99,,,-99.99,0.000000,,2013-03-30 02:53:00,
2013-03-29 23:00:00,35.0,17.0,-100.00,SW,225,2.0,-999.0,48,-99.99,,,-99.99,0.000000,,2013-03-30 03:00:00,
2013-03-29 23:43:00,35.0,17.0,-100.00,SW,225,2.0,-999.0,48,-99.99,,,-99.99,0.000000,,2013-03-30 03:43:00,
2013-03-29 23:53:00,35.0,17.0,-100.00,SW,225,2.0,-999.0,48,-99.99,,,-99.99,0.000000,,2013-03-30 03:53:00,